TimeEDT,TemperatureF,Dew PointF,Humidity,Sea Level PressureIn,VisibilityMPH,Wind Direction,Wind SpeedMPH,Gust SpeedMPH,PrecipitationIn,Events,Conditions,WindDirDegrees,DateUTC
12:16 AM,68.0,64.4,88,30.05,10.0,Calm,Calm,-,N/A,,Scattered Clouds,0,2013-07-03 04:16:00
12:37 AM,68.0,64.4,88,30.05,10.0,Calm,Calm,-,N/A,,Scattered Clouds,0,2013-07-03 04:37:00
12:56 AM,68.0,64.4,88,30.05,10.0,Calm,Calm,-,N/A,,Scattered Clouds,0,2013-07-03 04:56:00
1:16 AM,68.0,64.4,88,30.05,10.0,Calm,Calm,-,N/A,,Clear,0,2013-07-03 05:16:00
1:37 AM,66.2,64.4,94,30.05,10.0,Calm,Calm,-,N/A,,Scattered Clouds,0,2013-07-03 05:37:00
1:56 AM,66.2,62.6,88,30.05,10.0,Calm,Calm,-,N/A,,Scattered Clouds,0,2013-07-03 05:56:00
2:16 AM,64.4,62.6,94,30.05,10.0,Calm,Calm,-,N/A,,Scattered Clouds,0,2013-07-03 06:16:00
2:37 AM,64.4,62.6,94,30.05,7.0,Calm,Calm,-,N/A,,Mostly Cloudy,0,2013-07-03 06:37:00
2:56 AM,64.4,62.6,94,30.06,7.0,Calm,Calm,-,N/A,,Scattered Clouds,0,2013-07-03 06:56:00
3:16 AM,64.4,62.6,94,30.05,5.0,Calm,Calm,-,N/A,,Clear,0,2013-07-03 07:16:00
3:36 AM,64.4,62.6,94,30.04,5.0,Calm,Calm,-,N/A,,Clear,0,2013-07-03 07:36:00
3:56 AM,62.6,62.6,100,30.05,4.0,Calm,Calm,-,N/A,,Clear,0,2013-07-03 07:56:00
4:16 AM,64.4,62.6,94,30.06,5.0,Calm,Calm,-,N/A,,Clear,0,2013-07-03 08:16:00
4:36 AM,64.4,62.6,94,30.05,5.0,Calm,Calm,-,N/A,,Clear,0,2013-07-03 08:36:00
4:56 AM,64.4,62.6,94,30.06,5.0,Calm,Calm,-,N/A,,Clear,0,2013-07-03 08:56:00
5:17 AM,64.4,62.6,94,30.07,7.0,SSE,3.5,-,N/A,,Clear,160,2013-07-03 09:17:00
5:36 AM,66.2,64.4,94,30.07,7.0,SSE,3.5,-,N/A,,Mostly Cloudy,160,2013-07-03 09:36:00
5:56 AM,66.2,64.4,94,30.08,7.0,SSE,3.5,-,N/A,,Overcast,160,2013-07-03 09:56:00
6:17 AM,66.2,64.4,94,30.09,7.0,South,3.5,-,N/A,,Overcast,170,2013-07-03 10:17:00
6:36 AM,68.0,64.4,88,30.10,5.0,Calm,Calm,-,N/A,,Overcast,0,2013-07-03 10:36:00
6:56 AM,68.0,66.2,94,30.10,5.0,Calm,Calm,-,N/A,,Overcast,0,2013-07-03 10:56:00
7:17 AM,68.0,66.2,94,30.10,7.0,SSE,4.6,-,N/A,,Scattered Clouds,160,2013-07-03 11:17:00
7:36 AM,68.0,66.2,94,30.10,7.0,South,3.5,-,N/A,,Clear,180,2013-07-03 11:36:00
7:56 AM,69.8,68.0,94,30.11,7.0,SW,4.6,-,N/A,,Scattered Clouds,220,2013-07-03 11:56:00
8:17 AM,69.8,66.2,88,30.12,7.0,Calm,Calm,-,N/A,,Mostly Cloudy,0,2013-07-03 12:17:00
8:36 AM,69.8,66.2,88,30.12,10.0,Calm,Calm,-,N/A,,Overcast,0,2013-07-03 12:36:00
8:56 AM,69.8,66.2,88,30.12,10.0,Calm,Calm,-,N/A,,Mostly Cloudy,0,2013-07-03 12:56:00
9:17 AM,69.8,66.2,88,30.14,10.0,South,3.5,-,N/A,,Mostly Cloudy,170,2013-07-03 13:17:00
9:36 AM,69.8,66.2,88,30.14,10.0,South,4.6,-,N/A,,Mostly Cloudy,180,2013-07-03 13:36:00
9:56 AM,71.6,68.0,88,30.15,10.0,South,4.6,-,N/A,,Scattered Clouds,170,2013-07-03 13:56:00
10:17 AM,71.6,66.2,83,30.15,10.0,South,3.5,-,N/A,,Mostly Cloudy,180,2013-07-03 14:17:00
10:36 AM,73.4,68.0,83,30.15,10.0,SSW,3.5,-,N/A,,Overcast,200,2013-07-03 14:36:00
10:56 AM,73.4,66.2,78,30.15,10.0,Calm,Calm,-,N/A,,Mostly Cloudy,0,2013-07-03 14:56:00
11:17 AM,77.0,64.4,65,30.15,10.0,South,4.6,-,N/A,,Scattered Clouds,170,2013-07-03 15:17:00
11:36 AM,77.0,64.4,65,30.15,10.0,South,4.6,-,N/A,,Clear,190,2013-07-03 15:36:00
11:56 AM,77.0,64.4,65,30.15,10.0,SSW,8.1,-,N/A,,Scattered Clouds,210,2013-07-03 15:56:00
12:17 PM,78.8,64.4,61,30.15,10.0,SSW,5.8,-,N/A,,Scattered Clouds,200,2013-07-03 16:17:00
12:36 PM,78.8,64.4,61,30.14,10.0,SW,5.8,-,N/A,,Scattered Clouds,220,2013-07-03 16:36:00
12:56 PM,78.8,62.6,57,30.14,10.0,South,5.8,-,N/A,,Clear,190,2013-07-03 16:56:00
1:17 PM,78.8,64.4,61,30.15,10.0,SSW,9.2,-,N/A,,Clear,210,2013-07-03 17:17:00
1:36 PM,80.6,64.4,58,30.14,10.0,SSW,11.5,16.1,N/A,,Clear,200,2013-07-03 17:36:00
1:56 PM,80.6,64.4,58,30.14,10.0,South,5.8,-,N/A,,Clear,170,2013-07-03 17:56:00
2:17 PM,80.6,64.4,58,30.13,10.0,SSW,9.2,-,N/A,,Scattered Clouds,200,2013-07-03 18:17:00
2:36 PM,80.6,64.4,58,30.13,10.0,SSW,8.1,17.3,N/A,,Scattered Clouds,210,2013-07-03 18:36:00
2:56 PM,80.6,64.4,58,30.13,10.0,SSW,4.6,-,N/A,,Clear,200,2013-07-03 18:56:00
3:17 PM,80.6,64.4,58,30.12,10.0,South,8.1,-,N/A,,Clear,190,2013-07-03 19:17:00
3:36 PM,80.6,64.4,58,30.12,10.0,SSW,9.2,-,N/A,,Clear,210,2013-07-03 19:36:00
3:56 PM,80.6,64.4,58,30.12,10.0,SW,9.2,-,N/A,,Clear,230,2013-07-03 19:56:00
4:17 PM,80.6,64.4,58,30.12,10.0,SW,11.5,-,N/A,,Scattered Clouds,220,2013-07-03 20:17:00
4:36 PM,80.6,64.4,58,30.11,10.0,SW,5.8,-,N/A,,Clear,220,2013-07-03 20:36:00
4:57 PM,78.8,64.4,61,30.11,10.0,SSW,6.9,-,N/A,,Clear,200,2013-07-03 20:57:00
5:16 PM,80.6,64.4,58,30.11,10.0,SSW,6.9,-,N/A,,Clear,210,2013-07-03 21:16:00
5:36 PM,78.8,64.4,61,30.11,10.0,SSW,6.9,-,N/A,,Clear,210,2013-07-03 21:36:00
5:57 PM,78.8,64.4,61,30.11,10.0,SW,8.1,-,N/A,,Clear,220,2013-07-03 21:57:00
6:16 PM,78.8,64.4,61,30.11,10.0,SSW,6.9,-,N/A,,Clear,210,2013-07-03 22:16:00
6:36 PM,78.8,64.4,61,30.11,10.0,SSW,6.9,-,N/A,,Scattered Clouds,200,2013-07-03 22:36:00
6:57 PM,78.8,64.4,61,30.10,10.0,SSW,5.8,-,N/A,,Scattered Clouds,210,2013-07-03 22:57:00
7:16 PM,77.0,64.4,65,30.10,10.0,SSW,4.6,-,N/A,,Clear,200,2013-07-03 23:16:00
7:36 PM,77.0,66.2,69,30.11,10.0,SSW,5.8,-,N/A,,Clear,210,2013-07-03 23:36:00
7:57 PM,77.0,64.4,65,30.11,10.0,SSW,4.6,-,N/A,,Scattered Clouds,200,2013-07-03 23:57:00
8:16 PM,77.0,66.2,69,30.11,10.0,SW,3.5,-,N/A,,Scattered Clouds,220,2013-07-04 00:16:00
8:36 PM,75.2,66.2,73,30.11,10.0,SSE,3.5,-,N/A,,Scattered Clouds,160,2013-07-04 00:36:00
8:57 PM,75.2,64.4,69,30.11,10.0,South,3.5,-,N/A,,Clear,180,2013-07-04 00:57:00
9:16 PM,73.4,66.2,78,30.12,10.0,SSE,3.5,-,N/A,,Scattered Clouds,160,2013-07-04 01:16:00
9:36 PM,73.4,66.2,78,30.12,10.0,SSE,3.5,-,N/A,,Scattered Clouds,150,2013-07-04 01:36:00
9:57 PM,73.4,66.2,78,30.12,10.0,Calm,Calm,-,N/A,,Overcast,0,2013-07-04 01:57:00
10:16 PM,71.6,68.0,88,30.12,10.0,SE,4.6,-,N/A,,Overcast,140,2013-07-04 02:16:00
10:36 PM,73.4,66.2,78,30.13,10.0,Calm,Calm,-,N/A,,Mostly Cloudy,0,2013-07-04 02:36:00
10:57 PM,73.4,66.2,78,30.13,10.0,SSW,3.5,-,N/A,,Mostly Cloudy,200,2013-07-04 02:57:00
11:16 PM,73.4,66.2,78,30.14,7.0,South,8.1,-,0.03,Rain,Heavy Rain,190,2013-07-04 03:16:00
11:36 PM,71.6,68.0,88,30.14,7.0,SSW,4.6,-,0.07,Rain,Light Rain,210,2013-07-04 03:36:00
11:57 PM,69.8,68.0,94,30.14,7.0,SW,3.5,-,0.07,,Scattered Clouds,220,2013-07-04 03:57:00